time_stamp(utc),avg(mph),gust(mph),direction(deg),12m_air_temp(f),sonic_u(cm/s),sonic_v(cm/s),sonic_w(cm/s),pressure,2m_air_temp(f),pyranometer(W/m^2)
"2018-10-01 00:02:07+00",8.4,10.4,,67.6,-5,-345,-2,1025.6,67,0
"2018-10-01 00:07:07+00",8.4,10.4,,67.7,25,-361,-4,1025.59,67,0
"2018-10-01 00:12:07+00",6.8,7.8,,67.6,-7,-286,-7,1025.61,67,0
"2018-10-01 00:17:07+00",8.0,10.0,,67.6,-14,-337,-8,1025.6,66.9,0
"2018-10-01 00:22:07+00",8.3,9.3,,67.6,11,-342,-7,1025.49,66.9,0
"2018-10-01 00:27:07+00",8.3,9.3,,67.8,-30,-352,-10,1025.54,67,0
"2018-10-01 00:32:07+00",7.4,8.4,,67.7,6,-310,-7,1025.47,66.9,0
"2018-10-01 00:37:07+00",7.7,9.7,,67.6,-23,-324,-11,1025.35,66.8,0
"2018-10-01 00:42:07+00",8.8,9.8,,67.7,35,-366,-5,1025.3,66.8,0
"2018-10-01 00:47:07+00",8.2,10.2,,67.5,48,-357,-17,1025.42,66.7,0
"2018-10-01 00:52:07+00",6.9,7.9,,67.6,-52,-284,-14,1025.55,66.7,0
"2018-10-01 00:57:07+00",6.7,7.7,,67.6,3,-283,-4,1025.46,66.8,0
"2018-10-01 01:02:07+00",7.6,9.6,,67.6,11,-321,-1,1025.41,66.7,0
"2018-10-01 01:07:07+00",6.4,8.4,,67.7,-10,-260,0,1025.46,66.8,0
"2018-10-01 01:12:07+00",5.8,6.8,,67.6,-6,-242,-8,1025.54,66.9,0
"2018-10-01 01:17:07+00",6.9,8.9,,67.8,-44,-293,-13,1025.59,67,0
"2018-10-01 01:22:07+00",6.9,8.9,,67.8,-19,-288,-8,1025.57,67,0
"2018-10-01 01:27:07+00",6.1,7.1,,67.6,-49,-259,-7,1025.68,66.9,0
"2018-10-01 01:32:07+00",6.8,8.8,,67.7,-57,-281,-12,1025.71,66.9,0
"2018-10-01 01:37:07+00",6.0,7.0,,67.6,-61,-251,-4,1025.81,66.8,0
"2018-10-01 01:42:07+00",6.2,8.2,,67.5,-56,-256,0,1025.79,66.6,0
"2018-10-01 01:47:07+00",5.7,6.7,,67.5,-61,-232,-1,1025.84,66.5,0
"2018-10-01 01:52:07+00",6.6,7.6,,67.3,-76,-270,-1,1025.87,66.4,0
"2018-10-01 01:57:07+00",6.3,8.3,,67.3,-70,-256,-6,1025.85,66.2,0
"2018-10-01 02:02:07+00",5.9,6.9,,67.3,-47,-249,-3,1025.8,66.3,0
"2018-10-01 02:07:07+00",6.8,7.8,,67.3,-60,-281,-3,1025.77,66.5,0
"2018-10-01 02:12:07+00",7.0,8.0,,67.3,-67,-293,-15,1025.73,66.5,0
"2018-10-01 02:17:07+00",6.9,8.9,,67.2,-51,-287,-13,1025.69,66.4,0
"2018-10-01 02:22:07+00",7.3,9.3,,67.1,-84,-305,-10,1025.7,66.3,0
"2018-10-01 02:27:07+00",7.7,8.7,,67,-98,-320,-6,1025.68,66.1,0
"2018-10-01 02:32:07+00",6.0,7.0,,66.9,-62,-242,6,1025.73,66.1,0
"2018-10-01 02:37:07+00",7.5,9.5,,67,-76,-312,-6,1025.7,66.1,0
"2018-10-01 02:42:07+00",7.3,10.3,,67,-89,-298,-4,1025.75,66.1,0
"2018-10-01 02:47:07+00",6.9,8.9,,67,-92,-280,-3,1025.65,66.1,0
"2018-10-01 02:52:07+00",6.2,7.2,,67,-72,-253,0,1025.67,66.1,0
"2018-10-01 02:57:07+00",6.9,8.9,,67,-95,-275,-4,1025.66,66,0
"2018-10-01 03:02:07+00",7.3,9.3,,67,-100,-300,-5,1025.69,66,0
"2018-10-01 03:07:07+00",6.8,8.8,,67,-90,-279,-5,1025.72,66.1,0
"2018-10-01 03:12:07+00",7.1,9.1,,67,-101,-281,-8,1025.82,66.1,0
"2018-10-01 03:17:07+00",6.6,7.6,,67,-98,-262,-7,1025.85,66,0
"2018-10-01 03:22:07+00",6.0,7.0,,67,-83,-240,0,1025.91,66,0
"2018-10-01 03:27:07+00",5.5,6.5,,66.9,-81,-225,-5,1025.86,66,0
"2018-10-01 03:32:07+00",6.5,8.5,,67,-65,-265,-8,1025.95,66,0
"2018-10-01 03:37:07+00",6.1,7.1,,67,-58,-247,5,1025.89,66.1,0
"2018-10-01 03:42:07+00",6.1,7.1,,67.1,-54,-245,-9,1025.86,66.3,0
"2018-10-01 03:47:07+00",6.0,7.0,,67.1,-88,-242,-6,1025.83,66.3,0
"2018-10-01 03:52:07+00",6.5,7.5,,67.1,-110,-255,-3,1025.88,66.1,0
"2018-10-01 03:57:07+00",5.4,6.4,,67.2,-84,-213,0,1025.96,66,0
"2018-10-01 04:02:07+00",5.8,6.8,,67.1,-82,-232,1,1025.97,66,0
"2018-10-01 04:07:07+00",5.9,6.9,,67.2,-97,-232,-3,1025.96,66.1,0
"2018-10-01 04:12:07+00",5.8,6.8,,67.4,-111,-225,3,1025.94,66,0
"2018-10-01 04:17:07+00",6.5,7.5,,67.5,-142,-245,1,1025.99,66,0
"2018-10-01 04:22:07+00",6.3,7.3,,67.6,-138,-238,-1,1025.97,66,0
"2018-10-01 04:27:07+00",5.9,6.9,,67.5,-106,-229,-3,1025.88,66,0
"2018-10-01 04:32:07+00",6.2,7.2,,67.5,-110,-241,-6,1025.87,66.1,0
"2018-10-01 04:37:07+00",6.0,7.0,,67.5,-135,-226,4,1025.8,66.1,0
"2018-10-01 04:42:07+00",6.9,7.9,,67.5,-161,-260,-4,1025.75,66.1,0
"2018-10-01 04:47:07+00",7.4,8.4,,67.5,-171,-278,2,1025.76,66.1,0
"2018-10-01 04:52:07+00",8.1,9.1,,67.6,-171,-308,-3,1025.77,66.2,0
"2018-10-01 04:57:07+00",7.9,8.9,,67.7,-191,-294,2,1025.75,66.3,0
"2018-10-01 05:02:07+00",7.1,8.1,,67.7,-191,-258,1,1025.8,66.4,0
"2018-10-01 05:07:07+00",7.1,8.1,,67.7,-161,-265,-3,1025.68,66.3,0
"2018-10-01 05:12:07+00",7.5,8.5,,67.7,-157,-283,-1,1025.6,66.3,0
"2018-10-01 05:17:07+00",6.7,7.7,,67.7,-152,-253,0,1025.65,66.3,0
"2018-10-01 05:22:07+00",6.4,7.4,,67.7,-173,-230,2,1025.66,66.3,0
"2018-10-01 05:27:07+00",6.2,7.2,,67.8,-170,-222,3,1025.78,66.3,0
"2018-10-01 05:32:07+00",6.9,7.9,,67.7,-157,-258,1,1025.69,66.3,0
"2018-10-01 05:37:07+00",7.1,8.1,,67.8,-155,-266,-2,1025.62,66.2,0
"2018-10-01 05:42:07+00",7.0,7.0,,67.8,-171,-259,-3,1025.64,66.2,0
"2018-10-01 05:47:07+00",7.0,8.0,,67.8,-126,-276,-4,1025.63,66.2,0
"2018-10-01 05:52:07+00",7.1,8.1,,67.7,-132,-275,-2,1025.55,66.2,0
"2018-10-01 05:57:07+00",6.6,7.6,,67.7,-135,-252,4,1025.53,66.3,0
"2018-10-01 06:02:07+00",6.3,7.3,,67.7,-115,-243,0,1025.57,66.3,0
"2018-10-01 06:07:07+00",6.2,7.2,,67.5,-80,-248,-5,1025.52,66.2,0
"2018-10-01 06:12:07+00",6.7,7.7,,67.4,-72,-277,-3,1025.49,66.2,0
"2018-10-01 06:17:07+00",6.5,7.5,,67.4,-69,-276,-10,1025.38,66.4,0
"2018-10-01 06:22:07+00",6.8,7.8,,67.2,-97,-270,-4,1025.41,66.3,0
"2018-10-01 06:27:07+00",7.2,8.2,,67.3,-125,-282,-5,1025.39,66.2,0
"2018-10-01 06:32:07+00",6.9,7.9,,67.4,-123,-274,3,1025.31,66.1,0
"2018-10-01 06:37:07+00",6.8,7.8,,67.4,-116,-262,-9,1025.24,66.2,0
"2018-10-01 06:42:07+00",7.5,8.5,,67.4,-120,-296,-8,1025.12,66.2,0
"2018-10-01 06:47:07+00",7.7,8.7,,67.4,-143,-296,-10,1025.07,66.2,0
"2018-10-01 06:52:07+00",7.0,8.0,,67.4,-142,-272,-3,1025.08,66.1,0
"2018-10-01 06:57:07+00",7.0,8.0,,67.5,-144,-269,-1,1025.04,66.2,0
"2018-10-01 07:02:07+00",7.0,8.0,,67.5,-127,-272,-4,1025.12,66.3,0
"2018-10-01 07:07:07+00",8.1,10.1,,67.6,-166,-314,-3,1025.1,66.3,0
"2018-10-01 07:12:07+00",7.3,8.3,,67.6,-112,-288,-1,1025.07,66.4,0
"2018-10-01 07:17:07+00",6.8,7.8,,67.6,-138,-261,4,1025.13,66.4,0
"2018-10-01 07:22:07+00",8.0,9.0,,67.6,-148,-308,-7,1025.09,66.4,0
"2018-10-01 07:27:07+00",8.3,9.3,,67.6,-140,-323,-7,1025.05,66.4,0
"2018-10-01 07:32:07+00",7.3,8.3,,67.5,-105,-303,-6,1024.93,66.4,0
"2018-10-01 07:37:07+00",7.9,8.9,,67.4,-130,-314,-4,1024.96,66.4,0
"2018-10-01 07:42:07+00",8.4,9.4,,67.5,-129,-331,-8,1024.91,66.4,0
"2018-10-01 07:47:07+00",8.3,9.3,,67.4,-134,-331,-9,1024.99,66.3,0
"2018-10-01 07:52:07+00",8.2,9.2,,67.4,-135,-325,-3,1025.1,66.3,0
"2018-10-01 07:57:07+00",8.6,9.6,,67.4,-140,-339,-7,1025.1,66.3,0
"2018-10-01 08:02:07+00",8.6,11.6,,67.3,-122,-347,-5,1025.18,66.3,0
"2018-10-01 08:07:07+00",8.0,10.0,,67.3,-111,-327,-7,1025.22,66.3,0
"2018-10-01 08:12:07+00",8.0,9.0,,67.5,-141,-311,-9,1025.3,66.3,0
"2018-10-01 08:17:07+00",8.3,9.3,,67.6,-157,-327,-10,1025.19,66.4,0
"2018-10-01 08:22:07+00",7.6,9.6,,67.6,-142,-293,-8,1025.16,66.4,0
"2018-10-01 08:27:07+00",7.9,9.9,,67.7,-153,-302,-10,1025.18,66.4,0
"2018-10-01 08:32:07+00",7.1,9.1,,67.8,-160,-266,5,1025.25,66.5,0
"2018-10-01 08:37:07+00",7.6,8.6,,67.8,-155,-290,-3,1025.33,66.5,0
"2018-10-01 08:42:07+00",7.2,8.2,,67.8,-180,-270,1,1025.29,66.5,0
"2018-10-01 08:47:07+00",6.8,8.8,,67.8,-191,-242,-1,1025.34,66.5,0
"2018-10-01 08:52:07+00",6.7,7.7,,67.8,-180,-241,-1,1025.28,66.4,0
"2018-10-01 08:57:07+00",6.7,7.7,,67.8,-199,-235,1,1025.27,66.4,0
"2018-10-01 09:02:07+00",6.7,7.7,,67.7,-191,-236,1,1025.31,66.3,0
"2018-10-01 09:07:07+00",6.5,7.5,,67.6,-180,-232,3,1025.31,66.3,0
"2018-10-01 09:12:07+00",6.1,6.1,,67.6,-146,-229,-1,1025.27,66.1,0
"2018-10-01 09:17:07+00",5.8,6.8,,67.5,-120,-219,-4,1025.31,66,0
"2018-10-01 09:22:07+00",4.6,5.6,,67.4,-67,-179,-5,1025.23,65.9,0
"2018-10-01 09:27:07+00",5.5,6.5,,67.4,-77,-219,-3,1025.19,66,0
"2018-10-01 09:32:07+00",5.8,6.8,,67.5,-114,-220,-5,1025.19,66.1,0
"2018-10-01 09:37:07+00",5.5,6.5,,67.5,-105,-209,-4,1025.29,65.9,0
"2018-10-01 09:42:07+00",5.6,6.6,,67.4,-98,-215,-5,1025.28,65.9,0
"2018-10-01 09:47:07+00",7.3,8.3,,67.5,-145,-280,-12,1025.23,66,0
"2018-10-01 09:52:07+00",6.7,7.7,,67.6,-157,-252,1,1025.34,65.9,0
"2018-10-01 09:57:07+00",7.2,8.2,,67.6,-167,-269,-4,1025.31,65.9,0
"2018-10-01 10:02:07+00",6.8,8.8,,67.6,-146,-262,0,1025.38,65.9,0
"2018-10-01 10:07:07+00",7.7,8.7,,67.5,-169,-290,-4,1025.38,65.9,0
"2018-10-01 10:12:07+00",6.9,7.9,,67.5,-157,-262,2,1025.45,65.9,0
"2018-10-01 10:17:07+00",7.2,8.2,,67.5,-180,-266,-2,1025.54,65.9,0
"2018-10-01 10:22:07+00",6.6,7.6,,67.5,-191,-231,-4,1025.6,65.9,0
"2018-10-01 10:27:07+00",7.1,8.1,,67.6,-226,-218,2,1025.62,65.8,0
"2018-10-01 10:32:07+00",6.9,7.9,,67.6,-254,-163,9,1025.7,65.8,0
"2018-10-01 10:37:07+00",7.2,7.2,,67.7,-262,-166,14,1025.75,65.8,0
"2018-10-01 10:42:07+00",6.4,7.4,,67.8,-233,-153,11,1025.73,65.7,0
"2018-10-01 10:47:07+00",5.8,5.8,,67.8,-201,-144,9,1025.77,65.7,0
"2018-10-01 10:52:07+00",5.9,6.9,,67.7,-206,-147,7,1025.78,65.7,0
"2018-10-01 10:57:07+00",7.8,8.8,,67.8,-252,-210,5,1025.81,65.7,0
"2018-10-01 11:02:07+00",6.8,7.8,,67.7,-248,-160,4,1025.86,65.7,0
"2018-10-01 11:07:07+00",7.2,8.2,,67.9,-259,-177,9,1025.89,65.8,0
"2018-10-01 11:12:07+00",6.2,7.2,,67.8,-222,-162,9,1025.94,66,0
"2018-10-01 11:17:07+00",7.7,9.7,,68,-270,-200,9,1026.01,66.3,0
"2018-10-01 11:22:07+00",5.3,6.3,,67.9,-190,-129,14,1026.11,66.5,0
"2018-10-01 11:27:07+00",5.8,6.8,,68,-208,-138,13,1026.15,66.7,0.1
"2018-10-01 11:32:07+00",4.1,5.1,,68,-170,-73,14,1026.15,67,4.4
"2018-10-01 11:37:07+00",5.1,6.1,,67.9,-196,-118,11,1026.19,67.1,0
"2018-10-01 11:42:07+00",5.8,6.8,,67.8,-231,-118,10,1026.23,67.2,0.1
"2018-10-01 11:47:07+00",5.3,6.3,,67.6,-220,-107,3,1026.26,67.3,4.9
"2018-10-01 11:52:07+00",6.0,7.0,,67.5,-253,-109,0,1026.25,67.4,15.2
"2018-10-01 11:57:07+00",6.3,8.3,,67.5,-246,-140,22,1026.21,67.6,29.1
"2018-10-01 12:02:07+00",7.6,8.6,,67.6,-270,-191,6,1026.22,67.9,17.1
"2018-10-01 12:07:07+00",6.7,7.7,,67.8,-242,-161,8,1026.32,68,25.4
"2018-10-01 12:12:07+00",8.4,9.4,,67.9,-289,-212,-14,1026.33,68.2,33.6
"2018-10-01 12:17:07+00",8.3,10.3,,68.2,-282,-218,-3,1026.39,68.4,33.2
"2018-10-01 12:22:07+00",8.6,9.6,,68.2,-276,-265,3,1026.41,68.5,30.6
"2018-10-01 12:27:07+00",6.8,7.8,,68.3,-197,-235,19,1026.48,68.6,27.7
"2018-10-01 12:32:07+00",6.9,7.9,,68.4,-207,-227,9,1026.5,68.6,44.5
"2018-10-01 12:37:07+00",7.7,8.7,,68.5,-246,-233,0,1026.55,68.8,50.4
"2018-10-01 12:42:07+00",7.8,8.8,,68.6,-251,-234,13,1026.67,69,58.1
"2018-10-01 12:47:07+00",7.8,9.8,,68.8,-260,-223,8,1026.69,69.2,45.7
"2018-10-01 12:52:07+00",7.5,8.5,,68.9,-239,-217,4,1026.7,69.4,67.9
"2018-10-01 12:57:07+00",8.9,9.9,,69,-302,-232,2,1026.86,69.7,69.3
"2018-10-01 13:02:07+00",8.2,9.2,,69.1,-264,-246,4,1026.81,69.9,109.5
"2018-10-01 13:07:07+00",9.4,10.4,,69.3,-323,-240,-4,1026.87,70.4,109.9
"2018-10-01 13:12:07+00",7.6,8.6,,69.5,-254,-222,28,1026.94,70.7,87.2
"2018-10-01 13:17:07+00",8.6,9.6,,69.7,-328,-203,28,1026.93,70.9,67.6
"2018-10-01 13:22:07+00",8.5,10.5,,69.8,-287,-222,13,1026.99,71.1,79
"2018-10-01 13:27:07+00",7.7,8.7,,70,-264,-219,32,1027.03,71.3,115
"2018-10-01 13:32:07+00",8.9,9.9,,70.2,-309,-241,17,1026.96,71.7,123.2
"2018-10-01 13:37:07+00",9.0,10.0,,70.4,-300,-262,40,1026.88,72,169.6
"2018-10-01 13:42:07+00",9.7,10.7,,70.6,-324,-269,6,1026.88,72.3,163.6
"2018-10-01 13:47:07+00",10.5,11.5,,70.8,-369,-268,11,1026.86,72.6,179
"2018-10-01 13:52:07+00",9.1,11.1,,71,-317,-247,45,1026.86,72.9,230.9
"2018-10-01 13:57:07+00",12.5,14.5,,71.1,-444,-323,6,1026.8,73.6,308.6
"2018-10-01 14:02:07+00",12.4,14.4,,71.5,-469,-300,14,1026.76,74.3,228.9
"2018-10-01 14:07:07+00",9.2,11.2,,71.7,-325,-257,65,1026.81,74.3,143.7
"2018-10-01 14:12:07+00",12.6,15.6,,71.6,-405,-368,14,1026.84,73.9,162.6
"2018-10-01 14:17:07+00",13.0,15.0,,71.6,-396,-449,10,1026.76,73.5,155
"2018-10-01 14:22:07+00",15.0,17.0,,71.6,-484,-451,-3,1026.78,73.1,173
"2018-10-01 14:27:07+00",13.2,15.2,,71.9,-424,-396,0,1026.72,73.3,224.7
"2018-10-01 14:32:07+00",11.0,13.0,,71.9,-355,-335,22,1026.74,73.5,209.5
"2018-10-01 14:37:07+00",13.1,15.1,,72.1,-377,-463,17,1026.71,73.8,208.4
"2018-10-01 14:42:07+00",12.2,14.2,,72.2,-371,-400,14,1026.67,73.8,176.6
"2018-10-01 14:47:07+00",12.8,15.8,,72.2,-417,-390,18,1026.68,73.7,176.9
"2018-10-01 14:52:07+00",12.6,14.6,,72.2,-345,-465,-3,1026.67,73.7,147.6
"2018-10-01 14:57:07+00",12.5,13.5,,72.4,-381,-399,-10,1026.65,73.5,176.4
"2018-10-01 15:02:07+00",11.7,14.7,,72.4,-292,-441,11,1026.65,73.6,167.1
"2018-10-01 15:07:07+00",13.2,16.2,,72.6,-407,-431,-1,1026.64,73.9,291.8
"2018-10-01 15:12:07+00",14.9,15.9,,72.9,-473,-447,15,1026.55,74.7,383.9
"2018-10-01 15:17:07+00",13.7,14.7,,72.9,-394,-483,-6,1026.5,75,324.1
"2018-10-01 15:22:07+00",13.7,15.7,,72.9,-333,-508,-6,1026.39,75.3,278.3
"2018-10-01 15:27:07+00",13.6,15.6,,73.1,-371,-497,24,1026.36,75.3,373.9
"2018-10-01 15:32:07+00",14.5,16.5,,73.2,-341,-548,5,1026.32,75.4,378.5
"2018-10-01 15:37:07+00",14.6,17.6,,73.1,-320,-564,25,1026.31,75.4,375.7
"2018-10-01 15:42:07+00",14.0,16.0,,73.2,-315,-518,-8,1026.35,75.3,392.6
"2018-10-01 15:47:07+00",15.9,17.9,,73.1,-396,-591,-5,1026.32,75.2,346.8
"2018-10-01 15:52:07+00",14.7,16.7,,73.1,-450,-499,11,1026.3,75.5,395.4
"2018-10-01 15:57:07+00",14.9,17.9,,72.9,-456,-516,-4,1026.32,75.6,398.8
"2018-10-01 16:02:07+00",14.2,17.2,,73.3,-346,-532,2,1026.33,75.7,398.8
"2018-10-01 16:07:07+00",14.5,17.5,,73.4,-382,-544,19,1026.27,75.7,405.4
"2018-10-01 16:12:07+00",14.3,16.3,,73.6,-355,-537,2,1026.26,75.8,411
"2018-10-01 16:17:07+00",13.6,15.6,,73.6,-404,-479,8,1026.24,75.8,418.8
"2018-10-01 16:22:07+00",16.7,19.7,,73.5,-383,-636,-7,1026.17,75.7,318.3
"2018-10-01 16:27:07+00",13.1,16.1,,73.7,-377,-472,19,1026.19,75.9,150.8
"2018-10-01 16:32:07+00",14.8,16.8,,73.3,-347,-557,-17,1026.3,74.9,137.3
"2018-10-01 16:37:07+00",14.3,16.3,,73.4,-300,-553,5,1026.13,74.9,212.3
"2018-10-01 16:42:07+00",14.5,18.5,,73.3,-237,-582,-5,1026.12,74.7,190.2
"2018-10-01 16:47:07+00",17.5,20.5,,73.2,-348,-677,-21,1026.07,74.4,399.9
"2018-10-01 16:52:07+00",15.9,17.9,,73.6,-430,-590,6,1026.08,75.4,468.6
"2018-10-01 16:57:07+00",16.0,20.0,,74,-273,-639,-6,1025.92,75.8,426.8
"2018-10-01 17:02:07+00",15.7,18.7,,73.9,-317,-610,1,1025.86,75.9,421.2
"2018-10-01 17:07:07+00",16.4,18.4,,73.5,-504,-558,-2,1025.79,75.9,418.4
"2018-10-01 17:12:07+00",13.2,17.2,,73.9,-231,-529,13,1025.69,75.9,407.8
"2018-10-01 17:17:07+00",16.4,20.4,,73.7,-253,-662,-8,1025.48,75.6,392.9
"2018-10-01 17:22:07+00",17.3,20.3,,73.5,-323,-674,-13,1025.42,75.6,391.3
"2018-10-01 17:27:07+00",16.7,19.7,,73.3,-272,-674,-8,1025.41,75.3,397.2
"2018-10-01 17:32:07+00",17.7,21.7,,73.4,-348,-681,-22,1025.17,75.3,397.5
"2018-10-01 17:37:07+00",15.6,18.6,,73.4,-195,-646,-6,1025.13,75.3,389.4
"2018-10-01 17:42:07+00",14.8,17.8,,73.4,-256,-594,3,1025.13,75.3,385.8
"2018-10-01 17:47:07+00",15.2,22.2,,73.4,-238,-605,-4,1025.11,75.2,382.4
"2018-10-01 17:52:07+00",17.4,22.4,,73.5,-283,-696,-19,1024.98,75.3,367
"2018-10-01 17:57:07+00",15.7,20.7,,73.5,-147,-655,-13,1024.88,75.2,358.7
"2018-10-01 18:02:07+00",17.6,20.6,,73.3,-375,-679,2,1024.98,75.1,374.1
"2018-10-01 18:07:07+00",17.9,20.9,,73.4,-337,-701,-3,1024.88,75.2,370.1
"2018-10-01 18:12:07+00",17.3,20.3,,73.6,-248,-700,-10,1024.96,75.4,355.6
"2018-10-01 18:17:07+00",14.3,18.3,,73.7,-175,-572,9,1024.89,75.3,353.6
"2018-10-01 18:22:07+00",17.5,20.5,,73.4,-287,-698,-22,1024.84,75.1,346.4
"2018-10-01 18:27:07+00",16.3,20.3,,73.5,-199,-663,-2,1024.72,75.1,332.5
"2018-10-01 18:32:07+00",13.7,17.7,,73.4,-190,-557,23,1024.6,75.1,337.9
"2018-10-01 18:37:07+00",13.7,18.7,,73.7,-160,-614,11,1024.56,75.2,328.9
"2018-10-01 18:42:07+00",16.4,21.4,,73.5,-220,-678,-5,1024.57,75.1,322.7
"2018-10-01 18:47:07+00",17.3,21.3,,73.4,-245,-703,-7,1024.61,75,309.8
"2018-10-01 18:52:07+00",18.1,21.1,,73.3,-309,-722,-11,1024.61,74.8,310.9
"2018-10-01 18:57:07+00",13.4,17.4,,73.4,-155,-531,27,1024.63,74.8,306.2
"2018-10-01 19:02:07+00",15.7,21.7,,73.4,-273,-622,-9,1024.65,74.8,270.1
"2018-10-01 19:07:07+00",15.8,19.8,,73.6,-229,-631,6,1024.64,75,279.8
"2018-10-01 19:12:07+00",13.2,16.2,,73.5,-204,-546,11,1024.6,75,289.5
"2018-10-01 19:17:07+00",15.4,19.4,,73.5,-204,-630,6,1024.52,75,293.3
"2018-10-01 19:22:07+00",16.7,21.7,,73.4,-254,-681,2,1024.55,74.9,264.3
"2018-10-01 19:27:07+00",16.2,21.2,,73.2,-224,-663,-6,1024.52,74.7,257
"2018-10-01 19:32:07+00",16.5,19.5,,73.2,-316,-646,-2,1024.47,74.7,256.1
"2018-10-01 19:37:07+00",14.6,17.6,,73,-369,-555,27,1024.49,74.4,236.7
"2018-10-01 19:42:07+00",14.5,16.5,,73.2,-306,-563,4,1024.45,74.6,250.6
"2018-10-01 19:47:07+00",13.8,19.8,,73.4,-136,-581,-4,1024.41,74.5,227.7
"2018-10-01 19:52:07+00",13.9,17.9,,73.2,-154,-577,-3,1024.42,74.3,239
"2018-10-01 19:57:07+00",12.1,15.1,,73.4,-159,-503,8,1024.34,74.5,229
"2018-10-01 20:02:07+00",14.4,17.4,,73.2,-170,-602,2,1024.43,74.6,229.3
"2018-10-01 20:07:07+00",13.7,17.7,,73.4,-234,-554,13,1024.36,74.7,240.1
"2018-10-01 20:12:07+00",14.8,19.8,,73.4,-152,-624,-7,1024.29,74.6,204.5
"2018-10-01 20:17:07+00",15.5,18.5,,73.3,-272,-624,2,1024.23,74.5,195.9
"2018-10-01 20:22:07+00",13.7,17.7,,73.4,-214,-550,-4,1024.3,74.5,177.8
"2018-10-01 20:27:07+00",15.4,18.4,,73.1,-222,-620,-7,1024.29,74.2,113.3
"2018-10-01 20:32:07+00",11.2,16.2,,73.1,-141,-448,12,1024.25,74.1,165.7
"2018-10-01 20:37:07+00",14.6,18.6,,73.1,-158,-607,-15,1024.24,74,157.3
"2018-10-01 20:42:07+00",12.4,17.4,,73.2,-176,-506,3,1024.26,73.9,99.6
"2018-10-01 20:47:07+00",14.0,17.0,,72.7,-201,-574,-13,1024.2,73.5,84.3
"2018-10-01 20:52:07+00",10.0,14.0,,72.9,-134,-407,22,1024.33,73.4,73.7
"2018-10-01 20:57:07+00",12.6,15.6,,72.7,-151,-519,-7,1024.25,73.3,88.6
"2018-10-01 21:02:07+00",12.0,16.0,,72.6,-136,-491,0,1024.25,73.1,55.4
"2018-10-01 21:07:07+00",14.0,17.0,,72.6,-166,-573,-7,1024.18,73,45.2
"2018-10-01 21:12:07+00",14.0,16.0,,72.4,-148,-580,-15,1024.17,72.9,37.5
"2018-10-01 21:17:07+00",11.3,14.3,,72.3,-164,-454,-12,1024.21,72.7,24.5
"2018-10-01 21:22:07+00",12.1,14.1,,72.2,-213,-483,3,1024.17,72.5,11
"2018-10-01 21:27:07+00",11.3,15.3,,72.1,-155,-466,19,1024.19,72.3,9.2
"2018-10-01 21:32:07+00",11.3,15.3,,72,-180,-463,19,1024.23,72.2,8.6
"2018-10-01 21:37:07+00",13.0,17.0,,71.9,-198,-522,9,1024.23,72,2.6
"2018-10-01 21:42:07+00",11.1,13.1,,71.8,-126,-464,2,1024.1,72,1.7
"2018-10-01 21:47:07+00",15.8,17.8,,71.7,-289,-623,-10,1024,71.8,0.2
"2018-10-01 21:52:07+00",14.6,18.6,,71.7,-147,-612,-7,1024.01,71.8,0.2
"2018-10-01 21:57:07+00",10.6,13.6,,71.7,-98,-446,1,1023.97,71.7,0
"2018-10-01 22:02:07+00",12.4,17.4,,71.6,-177,-503,-1,1023.93,71.6,0
"2018-10-01 22:07:07+00",13.9,18.9,,71.5,-183,-569,-7,1023.96,71.5,0
"2018-10-01 22:12:07+00",15.2,18.2,,71.5,-321,-585,1,1024,71.5,0
"2018-10-01 22:17:07+00",11.3,13.3,,71.5,-190,-451,-2,1024,71.4,0
"2018-10-01 22:22:07+00",11.0,15.0,,71.5,-187,-437,2,1023.97,71.4,0
"2018-10-01 22:27:07+00",11.8,13.8,,71.4,-195,-463,-10,1023.98,71.3,0
"2018-10-01 22:32:07+00",13.6,15.6,,71.3,-205,-541,-30,1024.04,71.2,0
"2018-10-01 22:37:07+00",12.5,16.5,,71.3,-226,-497,10,1024,71.2,0
"2018-10-01 22:42:07+00",11.7,13.7,,71.3,-182,-479,-7,1024.04,71.1,0
"2018-10-01 22:47:07+00",11.2,13.2,,71.2,-230,-432,3,1024.07,71.1,0
"2018-10-01 22:52:07+00",11.3,14.3,,71.2,-230,-450,-2,1024.03,71,0
"2018-10-01 22:57:07+00",13.4,16.4,,71.2,-237,-529,4,1024.03,71,0
"2018-10-01 23:02:07+00",11.8,14.8,,71.1,-193,-474,-4,1024.12,71,0
"2018-10-01 23:07:07+00",10.1,12.1,,71.1,-146,-409,9,1024.12,71,0
"2018-10-01 23:12:07+00",8.7,13.7,,71.1,-130,-358,20,1024.09,71,0
"2018-10-01 23:17:07+00",12.6,14.6,,71.1,-216,-501,-2,1024.13,70.9,0
"2018-10-01 23:22:07+00",11.0,14.0,,71,-142,-454,1,1024.1,70.9,0
"2018-10-01 23:27:07+00",10.3,14.3,,71,-112,-411,13,1024.11,70.9,0
"2018-10-01 23:32:07+00",15.5,17.5,,71,-220,-639,-10,1024.06,70.8,0
"2018-10-01 23:37:07+00",13.9,15.9,,71,-212,-555,-12,1024.04,70.8,0
"2018-10-01 23:42:07+00",13.2,16.2,,71,-182,-540,8,1024.04,70.8,0
"2018-10-01 23:47:07+00",11.7,14.7,,70.9,-166,-480,-1,1024.04,70.8,0
"2018-10-01 23:52:07+00",12.3,15.3,,70.9,-141,-511,-7,1024.01,70.7,0
"2018-10-01 23:57:07+00",13.7,16.7,,70.9,-120,-580,-29,1023.98,70.7,0
